STARLINK-36033 (66893 NORAD) Tracking and Keplerian Element Data

This shows tracking and keplerian element data for the satellite.

Feedback or suggestion? Click here.




ElementValue
Catalog66893
NameSTARLINK-36033
Epoch Orbit363
Epoch Day354.25003472
Epoch Year2025
RAAN36.0848
Inclination53.1575
Eccentricity8.73E-05
Argument of Perigee74.6463
Mean Anonmoly178.1622
Mean Motion15.74230337
Decay Rate-0.00091924
L11 66893U 25283R 25354.25003472 -.00091924 00000+0 -62909-3 0 9999
L22 66893 53.1575 36.0848 0000873 74.6463 178.1622 15.74230337 3631



Live tracking and technical data element details for STARLINK-36033 (NORAD 66893). STARLINK-36033 can be tracked NOW for your location showing map with azimuth and elevation plus other details from your city location.







IsCatalogInMostPopularTable: catalog: 66893, numindb: 10
Update: records affected: 1



GetName: 66893 STARLINK-36033

Hit Count: updated at: Sat, 07 Feb 2026 06:33:30 GMT